Regional Weather Roundup
Issued by NWS

Home | Current Version | Previous Version | Text Only | Print | Product List | Glossary On
Versions: 1 2 3 4 5 6 7 8 9 10 11 12 13 14 15 16 17 18 19 20 21 22 23 24 25 26 27 28 29 30 31 32 33 34 35 36 37 38 39 40 41 42 43 44 45 46 47 48 49 50
000
ASUS43 KBIS 270610
RWRND

NORTH DAKOTA REGIONAL WEATHER ROUNDUP
NATIONAL WEATHER SERVICE BISMARCK ND
1200 AM CST MON FEB 27 2017

NOTE: "FAIR" INDICATES FEW OR NO CLOUDS BELOW 12,000 FEET WITH NO
SIGNIFICANT WEATHER AND/OR OBSTRUCTIONS TO VISIBILITY.


NDZ001>003-009>011-017-270700-
NORTHWEST NORTH DAKOTA

CITY           SKY/WX    TMP DP  RH WIND       PRES   REMARKS
WILLISTON      FAIR      11   7  84 W6        29.80F WCI   1
6HR MIN TEMP:  11; 6HR MAX TEMP:  24;

MINOT          CLOUDY    16  11  80 SW7       29.80S WCI   6
MINOT AFB      CLEAR      9   5  86 SW8       29.79S WCI  -4
$$

NDZ018>021-031>035-040>046-270700-
SOUTHWEST NORTH DAKOTA

CITY           SKY/WX    TMP DP  RH WIND       PRES   REMARKS
BISMARCK       FAIR      11   9  92 CALM      29.85F
6HR MIN TEMP:  10; 6HR MAX TEMP:  20;

DICKINSON      FAIR      13   9  84 S3        29.76S
GARRISON         N/A      9   5  84 CALM      29.80S
6HR MIN TEMP:   7; 6HR MAX TEMP:  18;

HETTINGER ARPT CLOUDY    20  17  88 E5        29.79S WCI  13
$$

NDZ004>008-012>016-024-026-027-054-270700-
NORTHEAST NORTH DAKOTA

CITY           SKY/WX    TMP DP  RH WIND       PRES   REMARKS
GRAND FORKS    PTCLDY     7  -1  70 S8        29.90F WCI  -6
GRND FRKS AFB  CLEAR      9   4  80 SW7       29.90S WCI  -2
DEVILS LAKE    FAIR       2  -2  83 CALM      29.85S
$$

NDZ022-023-025-028>030-036>039-047>053-270700-
SOUTHEAST NORTH DAKOTA

CITY           SKY/WX    TMP DP  RH WIND       PRES   REMARKS
FARGO          CLOUDY    20  14  77 SE7       29.91S WCI  11
6HR MIN TEMP:  18; 6HR MAX TEMP:  20;

JAMESTOWN      CLOUDY    21  16  81 CALM      29.85S
$$





USA.gov is the U.S. government's official web portal to all federal, state and local government web resources and services.